Year,Month,Day,Hour,Minute,Value (Times are PST for temperature in C)
2008,08,16,00,00,17.60
2008,08,16,00,01,17.60
2008,08,16,00,02,17.50
2008,08,16,00,03,17.50
2008,08,16,00,04,17.50
2008,08,16,00,05,17.40
2008,08,16,00,06,17.40
2008,08,16,00,07,17.40
2008,08,16,00,08,17.40
2008,08,16,00,09,17.40
2008,08,16,00,10,17.40
2008,08,16,00,11,17.40
2008,08,16,00,12,17.40
2008,08,16,00,13,17.40
2008,08,16,00,14,17.40
2008,08,16,00,15,17.40
2008,08,16,00,16,17.40
2008,08,16,00,17,17.50
2008,08,16,00,18,17.50
2008,08,16,00,19,17.40
2008,08,16,00,20,17.50
2008,08,16,00,21,17.40
2008,08,16,00,22,17.40
2008,08,16,00,23,17.40
2008,08,16,00,24,17.40
2008,08,16,00,25,17.40
2008,08,16,00,26,17.30
2008,08,16,00,27,17.30
2008,08,16,00,28,17.30
2008,08,16,00,29,17.30
2008,08,16,00,30,17.30
2008,08,16,00,31,17.20
2008,08,16,00,32,17.20
2008,08,16,00,33,17.10
2008,08,16,00,34,17.10
2008,08,16,00,35,17.00
2008,08,16,00,36,17.00
2008,08,16,00,37,16.90
2008,08,16,00,38,16.90
2008,08,16,00,39,16.80
2008,08,16,00,40,16.80
2008,08,16,00,41,16.70
2008,08,16,00,42,16.60
2008,08,16,00,43,16.60
2008,08,16,00,44,16.50
2008,08,16,00,45,16.50
2008,08,16,00,46,16.40
2008,08,16,00,47,16.40
2008,08,16,00,48,16.40
2008,08,16,00,49,16.40
2008,08,16,00,50,16.50
2008,08,16,00,51,16.50
2008,08,16,00,52,16.60
2008,08,16,00,53,16.60
2008,08,16,00,54,16.70
2008,08,16,00,55,16.70
2008,08,16,00,56,16.80
2008,08,16,00,57,16.80
2008,08,16,00,58,16.80
2008,08,16,00,59,16.90
2008,08,16,01,00,16.90
2008,08,16,01,01,16.90
2008,08,16,01,02,17.00
2008,08,16,01,03,17.00
2008,08,16,01,04,17.00
2008,08,16,01,05,17.10
2008,08,16,01,06,17.10
2008,08,16,01,07,17.10
2008,08,16,01,08,17.10
2008,08,16,01,09,17.10
2008,08,16,01,10,17.20
2008,08,16,01,11,17.20
2008,08,16,01,12,17.20
2008,08,16,01,13,17.20
2008,08,16,01,14,17.10
2008,08,16,01,15,17.10
2008,08,16,01,16,17.10
2008,08,16,01,17,17.00
2008,08,16,01,18,16.90
2008,08,16,01,19,16.80
2008,08,16,01,20,16.70
2008,08,16,01,21,16.60
2008,08,16,01,22,16.60
2008,08,16,01,23,16.50
2008,08,16,01,24,16.40
2008,08,16,01,25,16.40
2008,08,16,01,26,16.30
2008,08,16,01,27,16.20
2008,08,16,01,28,16.20
2008,08,16,01,29,16.10
2008,08,16,01,30,16.10
2008,08,16,01,31,16.10
2008,08,16,01,32,16.00
2008,08,16,01,33,16.00
2008,08,16,01,34,16.00
2008,08,16,01,35,16.00
2008,08,16,01,36,16.00
2008,08,16,01,37,15.90
2008,08,16,01,38,15.90
2008,08,16,01,39,15.90
2008,08,16,01,40,15.90
2008,08,16,01,41,15.90
2008,08,16,01,42,15.90
2008,08,16,01,43,15.90
2008,08,16,01,44,15.90
2008,08,16,01,45,15.80
2008,08,16,01,46,15.80
2008,08,16,01,47,15.80
2008,08,16,01,48,15.90
2008,08,16,01,49,15.90
2008,08,16,01,50,15.90
2008,08,16,01,51,15.90
2008,08,16,01,52,15.90
2008,08,16,01,53,15.90
2008,08,16,01,54,15.90
2008,08,16,01,55,15.90
2008,08,16,01,56,15.90
2008,08,16,01,57,15.90
2008,08,16,01,58,15.90
2008,08,16,01,59,15.90
2008,08,16,02,00,16.00
2008,08,16,02,01,16.00
2008,08,16,02,02,16.00
2008,08,16,02,03,16.00
2008,08,16,02,04,16.00
2008,08,16,02,05,16.00
2008,08,16,02,06,16.00
2008,08,16,02,07,16.00
2008,08,16,02,08,16.00
2008,08,16,02,09,16.00
2008,08,16,02,10,16.00
2008,08,16,02,11,16.10
2008,08,16,02,12,16.10
2008,08,16,02,13,16.10
2008,08,16,02,14,16.10
2008,08,16,02,15,16.10
2008,08,16,02,16,16.10
2008,08,16,02,17,16.10
2008,08,16,02,18,16.10
2008,08,16,02,19,16.10
2008,08,16,02,20,16.10
2008,08,16,02,21,16.10
2008,08,16,02,22,16.10
2008,08,16,02,23,16.20
2008,08,16,02,24,16.20
2008,08,16,02,25,16.20
2008,08,16,02,26,16.30
2008,08,16,02,27,16.30
2008,08,16,02,28,16.40
2008,08,16,02,29,16.40
2008,08,16,02,30,16.50
2008,08,16,02,31,16.60
2008,08,16,02,32,16.60
2008,08,16,02,33,16.60
2008,08,16,02,34,16.60
2008,08,16,02,35,16.70
2008,08,16,02,36,16.70
2008,08,16,02,37,16.70
2008,08,16,02,38,16.70
2008,08,16,02,39,16.70
2008,08,16,02,40,16.70
2008,08,16,02,41,16.70
2008,08,16,02,42,16.70
2008,08,16,02,43,16.70
2008,08,16,02,44,16.80
2008,08,16,02,45,16.80
2008,08,16,02,46,16.80
2008,08,16,02,47,16.80
2008,08,16,02,48,16.80
2008,08,16,02,49,16.70
2008,08,16,02,50,16.80
2008,08,16,02,51,16.70
2008,08,16,02,52,16.70
2008,08,16,02,53,16.70
2008,08,16,02,54,16.70
2008,08,16,02,55,16.70
2008,08,16,02,56,16.70
2008,08,16,02,57,16.70
2008,08,16,02,58,16.70
2008,08,16,02,59,16.60
2008,08,16,03,00,16.50
2008,08,16,03,01,16.40
2008,08,16,03,02,16.20
2008,08,16,03,03,16.00
2008,08,16,03,04,15.80
2008,08,16,03,05,15.70
2008,08,16,03,06,15.50
2008,08,16,03,07,15.40
2008,08,16,03,08,15.30
2008,08,16,03,09,15.10
2008,08,16,03,10,15.00
2008,08,16,03,11,15.00
2008,08,16,03,12,14.90
2008,08,16,03,13,14.80
2008,08,16,03,14,14.70
2008,08,16,03,15,14.60
2008,08,16,03,16,14.50
2008,08,16,03,17,14.40
2008,08,16,03,18,14.40
2008,08,16,03,19,14.30
2008,08,16,03,20,14.30
2008,08,16,03,21,14.20
2008,08,16,03,22,14.20
2008,08,16,03,23,14.20
2008,08,16,03,24,14.10
2008,08,16,03,25,14.10
2008,08,16,03,26,14.10
2008,08,16,03,27,14.10
2008,08,16,03,28,14.10
2008,08,16,03,29,14.10
2008,08,16,03,30,14.10
2008,08,16,03,31,14.10
2008,08,16,03,32,14.00
2008,08,16,03,33,14.00
2008,08,16,03,34,14.00
2008,08,16,03,35,14.00
2008,08,16,03,36,14.00
2008,08,16,03,37,14.00
2008,08,16,03,38,14.00
2008,08,16,03,39,14.00
2008,08,16,03,40,14.00
2008,08,16,03,41,14.10
2008,08,16,03,42,14.10
2008,08,16,03,43,14.10
2008,08,16,03,44,14.10
2008,08,16,03,45,14.10
2008,08,16,03,46,14.10
2008,08,16,03,47,14.10
2008,08,16,03,48,14.20
2008,08,16,03,49,14.20
2008,08,16,03,50,14.20
2008,08,16,03,51,14.20
2008,08,16,03,52,14.20
2008,08,16,03,53,14.20
2008,08,16,03,54,14.20
2008,08,16,03,55,14.20
2008,08,16,03,56,14.30
2008,08,16,03,57,14.30
2008,08,16,03,58,14.30
2008,08,16,03,59,14.30
2008,08,16,04,00,14.30
2008,08,16,04,01,14.30
2008,08,16,04,02,14.30
2008,08,16,04,03,14.30
2008,08,16,04,04,14.30
2008,08,16,04,05,14.30
2008,08,16,04,06,14.30
2008,08,16,04,07,14.30
2008,08,16,04,08,14.30
2008,08,16,04,09,14.30
2008,08,16,04,10,14.30
2008,08,16,04,11,14.30
2008,08,16,04,12,14.30
2008,08,16,04,13,14.30
2008,08,16,04,14,14.20
2008,08,16,04,15,14.20
2008,08,16,04,16,14.20
2008,08,16,04,17,14.20
2008,08,16,04,18,14.20
2008,08,16,04,19,14.20
2008,08,16,04,20,14.20
2008,08,16,04,21,14.20
2008,08,16,04,22,14.20
2008,08,16,04,23,14.20
2008,08,16,04,24,14.20
2008,08,16,04,25,14.20
2008,08,16,04,26,14.20
2008,08,16,04,27,14.10
2008,08,16,04,28,14.10
2008,08,16,04,29,14.10
2008,08,16,04,30,14.10
2008,08,16,04,31,14.10
2008,08,16,04,32,14.10
2008,08,16,04,33,14.10
2008,08,16,04,34,14.00
2008,08,16,04,35,14.00
2008,08,16,04,36,14.00
2008,08,16,04,37,14.00
2008,08,16,04,38,14.00
2008,08,16,04,39,13.90
2008,08,16,04,40,13.90
2008,08,16,04,41,13.90
2008,08,16,04,42,13.90
2008,08,16,04,43,13.90
2008,08,16,04,44,13.90
2008,08,16,04,45,13.90
2008,08,16,04,46,13.80
2008,08,16,04,47,13.80
2008,08,16,04,48,13.80
2008,08,16,04,49,13.80
2008,08,16,04,50,13.80
2008,08,16,04,51,13.80
2008,08,16,04,52,13.80
2008,08,16,04,53,13.70
2008,08,16,04,54,13.70
2008,08,16,04,55,13.70
2008,08,16,04,56,13.70
2008,08,16,04,57,13.70
2008,08,16,04,58,13.70
2008,08,16,04,59,13.70
2008,08,16,05,00,13.70
2008,08,16,05,01,13.70
2008,08,16,05,02,13.70
2008,08,16,05,03,13.70
2008,08,16,05,04,13.60
2008,08,16,05,05,13.70
2008,08,16,05,06,13.60
2008,08,16,05,07,13.60
2008,08,16,05,08,13.60
2008,08,16,05,09,13.60
2008,08,16,05,10,13.60
2008,08,16,05,11,13.60
2008,08,16,05,12,13.60
2008,08,16,05,13,13.60
2008,08,16,05,14,13.60
2008,08,16,05,15,13.60
2008,08,16,05,16,13.60
2008,08,16,05,17,13.60
2008,08,16,05,18,13.60
2008,08,16,05,19,13.60
2008,08,16,05,20,13.60
2008,08,16,05,21,13.60
2008,08,16,05,22,13.60
2008,08,16,05,23,13.60
2008,08,16,05,24,13.60
2008,08,16,05,25,13.60
2008,08,16,05,26,13.60
2008,08,16,05,27,13.70
2008,08,16,05,28,13.70
2008,08,16,05,29,13.70
2008,08,16,05,30,13.70
2008,08,16,05,31,13.70
2008,08,16,05,32,13.70
2008,08,16,05,33,13.60
2008,08,16,05,34,13.60
2008,08,16,05,35,13.60
2008,08,16,05,36,13.60
2008,08,16,05,37,13.60
2008,08,16,05,38,13.60
2008,08,16,05,39,13.60
2008,08,16,05,40,13.60
2008,08,16,05,41,13.60
2008,08,16,05,42,13.70
2008,08,16,05,43,13.70
2008,08,16,05,44,13.70
2008,08,16,05,45,13.70
2008,08,16,05,46,13.70
2008,08,16,05,47,13.70
2008,08,16,05,48,13.70
2008,08,16,05,49,13.70
2008,08,16,05,50,13.70
2008,08,16,05,51,13.70
2008,08,16,05,52,13.70
2008,08,16,05,53,13.70
2008,08,16,05,54,13.70
2008,08,16,05,55,13.70
2008,08,16,05,56,13.80
2008,08,16,05,57,13.80
2008,08,16,05,58,13.80
2008,08,16,05,59,13.80
2008,08,16,06,00,13.80
2008,08,16,06,01,13.70
2008,08,16,06,02,13.70
2008,08,16,06,03,13.70
2008,08,16,06,04,13.70
2008,08,16,06,05,13.70
2008,08,16,06,06,13.70
2008,08,16,06,07,13.70
2008,08,16,06,08,13.70
2008,08,16,06,09,13.70
2008,08,16,06,10,13.70
2008,08,16,06,11,13.70
2008,08,16,06,12,13.70
2008,08,16,06,13,13.70
2008,08,16,06,14,13.70
2008,08,16,06,15,13.70
2008,08,16,06,16,13.70
2008,08,16,06,17,13.70
2008,08,16,06,18,13.70
2008,08,16,06,19,13.80
2008,08,16,06,20,13.80
2008,08,16,06,21,13.80
2008,08,16,06,22,13.80
2008,08,16,06,23,13.80
2008,08,16,06,24,13.80
2008,08,16,06,25,13.80
2008,08,16,06,26,13.80
2008,08,16,06,27,13.80
2008,08,16,06,28,13.80
2008,08,16,06,29,13.80
2008,08,16,06,30,13.80
2008,08,16,06,31,13.80
2008,08,16,06,32,13.80
2008,08,16,06,33,13.90
2008,08,16,06,34,13.90
2008,08,16,06,35,13.90
2008,08,16,06,36,13.90
2008,08,16,06,37,13.90
2008,08,16,06,38,13.90
2008,08,16,06,39,13.90
2008,08,16,06,40,14.00
2008,08,16,06,41,14.00
2008,08,16,06,42,14.00
2008,08,16,06,43,14.00
2008,08,16,06,44,14.10
2008,08,16,06,45,14.10
2008,08,16,06,46,14.10
2008,08,16,06,47,14.10
2008,08,16,06,48,14.20
2008,08,16,06,49,14.20
2008,08,16,06,50,14.20
2008,08,16,06,51,14.20
2008,08,16,06,52,14.30
2008,08,16,06,53,14.30
2008,08,16,06,54,14.30
2008,08,16,06,55,14.30
2008,08,16,06,56,14.40
2008,08,16,06,57,14.40
2008,08,16,06,58,14.50
2008,08,16,06,59,14.50
2008,08,16,07,00,14.50
2008,08,16,07,01,14.60
2008,08,16,07,02,14.60
2008,08,16,07,03,14.70
2008,08,16,07,04,14.70
2008,08,16,07,05,14.80
2008,08,16,07,06,14.80
2008,08,16,07,07,14.90
2008,08,16,07,08,15.00
2008,08,16,07,09,15.00
2008,08,16,07,10,15.00
2008,08,16,07,11,15.00
2008,08,16,07,12,15.00
2008,08,16,07,13,15.00
2008,08,16,07,14,15.10
2008,08,16,07,15,15.10
2008,08,16,07,16,15.20
2008,08,16,07,17,15.20
2008,08,16,07,18,15.30
2008,08,16,07,19,15.30
2008,08,16,07,20,15.40
2008,08,16,07,21,15.50
2008,08,16,07,22,15.60
2008,08,16,07,23,15.70
2008,08,16,07,24,15.70
2008,08,16,07,25,15.70
2008,08,16,07,26,15.70
2008,08,16,07,27,15.80
2008,08,16,07,28,15.80
2008,08,16,07,29,15.80
2008,08,16,07,30,15.90
2008,08,16,07,31,15.90
2008,08,16,07,32,16.00
2008,08,16,07,33,16.00
2008,08,16,07,34,16.10
2008,08,16,07,35,16.20
2008,08,16,07,36,16.30
2008,08,16,07,37,16.40
2008,08,16,07,38,16.50
2008,08,16,07,39,16.50
2008,08,16,07,40,16.60
2008,08,16,07,41,16.70
2008,08,16,07,42,16.80
2008,08,16,07,43,16.80
2008,08,16,07,44,16.90
2008,08,16,07,45,17.10
2008,08,16,07,46,17.20
2008,08,16,07,47,17.30
2008,08,16,07,48,17.40
2008,08,16,07,49,17.40
2008,08,16,07,50,17.40
2008,08,16,07,51,17.50
2008,08,16,07,52,17.50
2008,08,16,07,53,17.50
2008,08,16,07,54,17.60
2008,08,16,07,55,17.60
2008,08,16,07,56,17.80
2008,08,16,07,57,17.90
2008,08,16,07,58,18.00
2008,08,16,07,59,18.00
2008,08,16,08,00,18.10
2008,08,16,08,01,18.30
2008,08,16,08,02,18.40
2008,08,16,08,03,18.60
2008,08,16,08,04,18.70
2008,08,16,08,05,18.90
2008,08,16,08,06,19.00
2008,08,16,08,07,19.10
2008,08,16,08,08,19.10
2008,08,16,08,09,19.10
2008,08,16,08,10,19.00
2008,08,16,08,11,19.00
2008,08,16,08,12,18.90
2008,08,16,08,13,18.90
2008,08,16,08,14,18.80
2008,08,16,08,15,18.80
2008,08,16,08,16,18.70
2008,08,16,08,17,18.70
2008,08,16,08,18,18.70
2008,08,16,08,19,18.80
2008,08,16,08,20,18.80
2008,08,16,08,21,18.80
2008,08,16,08,22,18.80
2008,08,16,08,23,18.90
2008,08,16,08,24,18.90
2008,08,16,08,25,19.00
2008,08,16,08,26,19.10
2008,08,16,08,27,19.10
2008,08,16,08,28,19.30
2008,08,16,08,29,19.40
2008,08,16,08,30,19.50
2008,08,16,08,31,19.70
2008,08,16,08,32,19.80
2008,08,16,08,33,20.00
2008,08,16,08,34,20.10
2008,08,16,08,35,20.20
2008,08,16,08,36,20.30
2008,08,16,08,37,20.40
2008,08,16,08,38,20.50
2008,08,16,08,39,20.70
2008,08,16,08,40,20.80
2008,08,16,08,41,20.90
2008,08,16,08,42,21.00
2008,08,16,08,43,21.10
2008,08,16,08,44,21.20
2008,08,16,08,45,21.20
2008,08,16,08,46,21.30
2008,08,16,08,47,21.40
2008,08,16,08,48,21.50
2008,08,16,08,49,21.50
2008,08,16,08,50,21.60
2008,08,16,08,51,21.60
2008,08,16,08,52,21.70
2008,08,16,08,53,21.70
2008,08,16,08,54,21.80
2008,08,16,08,55,21.80
2008,08,16,08,56,21.80
2008,08,16,08,57,21.80
2008,08,16,08,58,21.80
2008,08,16,08,59,21.80
2008,08,16,09,00,21.70
2008,08,16,09,01,21.70
2008,08,16,09,02,21.60
2008,08,16,09,03,21.50
2008,08,16,09,04,21.40
2008,08,16,09,05,21.40
2008,08,16,09,06,21.40
2008,08,16,09,07,21.40
2008,08,16,09,08,21.40
2008,08,16,09,09,21.40
2008,08,16,09,10,21.30
2008,08,16,09,11,21.20
2008,08,16,09,12,21.10
2008,08,16,09,13,21.00
2008,08,16,09,14,20.80
2008,08,16,09,15,20.80
2008,08,16,09,16,20.70
2008,08,16,09,17,20.60
2008,08,16,09,18,20.50
2008,08,16,09,19,20.50
2008,08,16,09,20,20.40
2008,08,16,09,21,20.30
2008,08,16,09,22,20.30
2008,08,16,09,23,20.30
2008,08,16,09,24,20.30
2008,08,16,09,25,20.40
2008,08,16,09,26,20.40
2008,08,16,09,27,20.50
2008,08,16,09,28,20.60
2008,08,16,09,29,20.70
2008,08,16,09,30,20.80
2008,08,16,09,31,20.90
2008,08,16,09,32,21.00
2008,08,16,09,33,21.10
2008,08,16,09,34,21.20
2008,08,16,09,35,21.30
2008,08,16,09,36,21.40
2008,08,16,09,37,21.40
2008,08,16,09,38,21.50
2008,08,16,09,39,21.50
2008,08,16,09,40,21.50
2008,08,16,09,41,21.60
2008,08,16,09,42,21.60
2008,08,16,09,43,21.70
2008,08,16,09,44,21.80
2008,08,16,09,45,21.80
2008,08,16,09,46,21.70
2008,08,16,09,47,21.70
2008,08,16,09,48,21.60
2008,08,16,09,49,21.50
2008,08,16,09,50,21.40
2008,08,16,09,51,21.30
2008,08,16,09,52,21.20
2008,08,16,09,53,21.10
2008,08,16,09,54,21.00
2008,08,16,09,55,20.90
2008,08,16,09,56,20.90
2008,08,16,09,57,20.90
2008,08,16,09,58,20.90
2008,08,16,09,59,20.90
2008,08,16,10,00,21.00
2008,08,16,10,01,21.00
2008,08,16,10,02,21.00
2008,08,16,10,03,21.10
2008,08,16,10,04,21.20
2008,08,16,10,05,21.30
2008,08,16,10,06,21.30
2008,08,16,10,07,21.30
2008,08,16,10,08,21.30
2008,08,16,10,09,21.30
2008,08,16,10,10,21.20
2008,08,16,10,11,21.10
2008,08,16,10,12,21.10
2008,08,16,10,13,21.00
2008,08,16,10,14,20.90
2008,08,16,10,15,20.90
2008,08,16,10,16,20.90
2008,08,16,10,17,21.00
2008,08,16,10,18,21.10
2008,08,16,10,19,21.10
2008,08,16,10,20,21.10
2008,08,16,10,21,21.10
2008,08,16,10,22,21.00
2008,08,16,10,23,20.90
2008,08,16,10,24,20.90
2008,08,16,10,25,20.80
2008,08,16,10,26,20.70
2008,08,16,10,27,20.60
2008,08,16,10,28,20.60
2008,08,16,10,29,20.60
2008,08,16,10,30,20.60
2008,08,16,10,31,20.60
2008,08,16,10,32,20.70
2008,08,16,10,33,20.70
2008,08,16,10,34,20.80
2008,08,16,10,35,20.80
2008,08,16,10,36,20.90
2008,08,16,10,37,20.90
2008,08,16,10,38,20.90
2008,08,16,10,39,21.00
2008,08,16,10,40,21.20
2008,08,16,10,41,21.30
2008,08,16,10,42,21.40
2008,08,16,10,43,21.50
2008,08,16,10,44,21.60
2008,08,16,10,45,21.70
2008,08,16,10,46,21.80
2008,08,16,10,47,21.80
2008,08,16,10,48,21.80
2008,08,16,10,49,22.00
2008,08,16,10,50,22.00
2008,08,16,10,51,22.10
2008,08,16,10,52,22.10
2008,08,16,10,53,22.20
2008,08,16,10,54,22.20
2008,08,16,10,55,22.20
2008,08,16,10,56,22.20
2008,08,16,10,57,22.20
2008,08,16,10,58,22.10
2008,08,16,10,59,22.10
2008,08,16,11,00,22.00
2008,08,16,11,01,22.00
2008,08,16,11,02,22.00
2008,08,16,11,03,22.00
2008,08,16,11,04,22.10
2008,08,16,11,05,22.10
2008,08,16,11,06,22.10
2008,08,16,11,07,22.20
2008,08,16,11,08,22.30
2008,08,16,11,09,22.30
2008,08,16,11,10,22.40
2008,08,16,11,11,22.50
2008,08,16,11,12,22.60
2008,08,16,11,13,22.70
2008,08,16,11,14,22.80
2008,08,16,11,15,22.90
2008,08,16,11,16,23.00
2008,08,16,11,17,23.10
2008,08,16,11,18,23.20
2008,08,16,11,19,23.20
2008,08,16,11,20,23.20
2008,08,16,11,21,23.10
2008,08,16,11,22,23.10
2008,08,16,11,23,23.10
2008,08,16,11,24,23.10
2008,08,16,11,25,23.10
2008,08,16,11,26,23.10
2008,08,16,11,27,23.10
2008,08,16,11,28,23.10
2008,08,16,11,29,23.20
2008,08,16,11,30,23.20
2008,08,16,11,31,23.30
2008,08,16,11,32,23.30
2008,08,16,11,33,23.40
2008,08,16,11,34,23.40
2008,08,16,11,35,23.50
2008,08,16,11,36,23.60
2008,08,16,11,37,23.60
2008,08,16,11,38,23.60
2008,08,16,11,39,23.60
2008,08,16,11,40,23.60
2008,08,16,11,41,23.60
2008,08,16,11,42,23.60
2008,08,16,11,43,23.60
2008,08,16,11,44,23.70
2008,08,16,11,45,23.70
2008,08,16,11,46,23.70
2008,08,16,11,47,23.70
2008,08,16,11,48,23.80
2008,08,16,11,49,23.90
2008,08,16,11,50,23.90
2008,08,16,11,51,24.00
2008,08,16,11,52,24.00
2008,08,16,11,53,24.10
2008,08,16,11,54,24.20
2008,08,16,11,55,24.30
2008,08,16,11,56,24.30
2008,08,16,11,57,24.30
2008,08,16,11,58,24.40
2008,08,16,11,59,24.50
2008,08,16,12,00,24.60
2008,08,16,12,01,24.70
2008,08,16,12,02,24.80
2008,08,16,12,03,24.80
2008,08,16,12,04,24.90
2008,08,16,12,05,25.00
2008,08,16,12,06,25.20
2008,08,16,12,07,25.30
2008,08,16,12,08,25.40
2008,08,16,12,09,25.40
2008,08,16,12,10,25.40
2008,08,16,12,11,25.30
2008,08,16,12,12,25.10
2008,08,16,12,13,25.00
2008,08,16,12,14,24.80
2008,08,16,12,15,24.60
2008,08,16,12,16,24.40
2008,08,16,12,17,24.40
2008,08,16,12,18,24.30
2008,08,16,12,19,24.30
2008,08,16,12,20,24.20
2008,08,16,12,21,24.10
2008,08,16,12,22,24.10
2008,08,16,12,23,24.10
2008,08,16,12,24,24.10
2008,08,16,12,25,24.10
2008,08,16,12,26,24.20
2008,08,16,12,27,24.20
2008,08,16,12,28,24.20
2008,08,16,12,29,24.20
2008,08,16,12,30,24.10
2008,08,16,12,31,24.00
2008,08,16,12,32,23.90
2008,08,16,12,33,23.90
2008,08,16,12,34,23.80
2008,08,16,12,35,23.80
2008,08,16,12,36,23.80
2008,08,16,12,37,23.80
2008,08,16,12,38,23.90
2008,08,16,12,39,24.00
2008,08,16,12,40,24.10
2008,08,16,12,41,24.20
2008,08,16,12,42,24.30
2008,08,16,12,43,24.30
2008,08,16,12,44,24.40
2008,08,16,12,45,24.40
2008,08,16,12,46,24.40
2008,08,16,12,47,24.40
2008,08,16,12,48,24.40
2008,08,16,12,49,24.40
2008,08,16,12,50,24.40
2008,08,16,12,51,24.40
2008,08,16,12,52,24.40
2008,08,16,12,53,24.50
2008,08,16,12,54,24.50
2008,08,16,12,55,24.40
2008,08,16,12,56,24.40
2008,08,16,12,57,24.40
2008,08,16,12,58,24.30
2008,08,16,12,59,24.40
2008,08,16,13,00,24.40
2008,08,16,13,01,24.40
2008,08,16,13,02,24.50
2008,08,16,13,03,24.60
2008,08,16,13,04,24.70
2008,08,16,13,05,24.80
2008,08,16,13,06,24.80
2008,08,16,13,07,24.90
2008,08,16,13,08,25.00
2008,08,16,13,09,25.00
2008,08,16,13,10,25.10
2008,08,16,13,11,25.20
2008,08,16,13,12,25.30
2008,08,16,13,13,25.30
2008,08,16,13,14,25.40
2008,08,16,13,15,25.50
2008,08,16,13,16,25.60
2008,08,16,13,17,25.70
2008,08,16,13,18,25.70
2008,08,16,13,19,25.80
2008,08,16,13,20,25.90
2008,08,16,13,21,26.10
2008,08,16,13,22,26.30
2008,08,16,13,23,26.40
2008,08,16,13,24,26.60
2008,08,16,13,25,26.80
2008,08,16,13,26,26.90
2008,08,16,13,27,26.90
2008,08,16,13,28,27.00
2008,08,16,13,29,27.00
2008,08,16,13,30,27.10
2008,08,16,13,31,27.20
2008,08,16,13,32,27.30
2008,08,16,13,33,27.40
2008,08,16,13,34,27.50
2008,08,16,13,35,27.60
2008,08,16,13,36,27.50
2008,08,16,13,37,27.40
2008,08,16,13,38,27.30
2008,08,16,13,39,27.20
2008,08,16,13,40,27.20
2008,08,16,13,41,27.10
2008,08,16,13,42,27.10
2008,08,16,13,43,27.10
2008,08,16,13,44,27.10
2008,08,16,13,45,27.20
2008,08,16,13,46,27.30
2008,08,16,13,47,27.30
2008,08,16,13,48,27.30
2008,08,16,13,49,27.30
2008,08,16,13,50,27.20
2008,08,16,13,51,27.20
2008,08,16,13,52,27.30
2008,08,16,13,53,27.40
2008,08,16,13,54,27.40
2008,08,16,13,55,27.40
2008,08,16,13,56,27.40
2008,08,16,13,57,27.40
2008,08,16,13,58,27.40
2008,08,16,13,59,27.40
2008,08,16,14,00,27.40
2008,08,16,14,01,27.30
2008,08,16,14,02,27.30
2008,08,16,14,03,27.40
2008,08,16,14,04,27.40
2008,08,16,14,05,27.50
2008,08,16,14,06,27.50
2008,08,16,14,07,27.50
2008,08,16,14,08,27.50
2008,08,16,14,09,27.40
2008,08,16,14,10,27.40
2008,08,16,14,11,27.40
2008,08,16,14,12,27.40
2008,08,16,14,13,27.30
2008,08,16,14,14,27.30
2008,08,16,14,15,27.20
2008,08,16,14,16,27.20
2008,08,16,14,17,27.20
2008,08,16,14,18,27.30
2008,08,16,14,19,27.40
2008,08,16,14,20,27.40
2008,08,16,14,21,27.50
2008,08,16,14,22,27.60
2008,08,16,14,23,27.60
2008,08,16,14,24,27.60
2008,08,16,14,25,27.70
2008,08,16,14,26,27.70
2008,08,16,14,27,27.80
2008,08,16,14,28,27.90
2008,08,16,14,29,28.00
2008,08,16,14,30,28.10
2008,08,16,14,31,28.10
2008,08,16,14,32,28.10
2008,08,16,14,33,28.00
2008,08,16,14,34,27.90
2008,08,16,14,35,27.80
2008,08,16,14,36,27.90
2008,08,16,14,37,27.90
2008,08,16,14,38,27.90
2008,08,16,14,39,27.90
2008,08,16,14,40,27.80
2008,08,16,14,41,27.80
2008,08,16,14,42,27.80
2008,08,16,14,43,27.70
2008,08,16,14,44,27.70
2008,08,16,14,45,27.70
2008,08,16,14,46,27.80
2008,08,16,14,47,27.80
2008,08,16,14,48,27.90
2008,08,16,14,49,27.90
2008,08,16,14,50,28.00
2008,08,16,14,51,28.10
2008,08,16,14,52,28.20
2008,08,16,14,53,28.30
2008,08,16,14,54,28.30
2008,08,16,14,55,28.30
2008,08,16,14,56,28.30
2008,08,16,14,57,28.30
2008,08,16,14,58,28.30
2008,08,16,14,59,28.30
2008,08,16,15,00,28.30
2008,08,16,15,01,28.30
2008,08,16,15,02,28.20
2008,08,16,15,03,28.20
2008,08,16,15,04,28.20
2008,08,16,15,05,28.20
2008,08,16,15,06,28.20
2008,08,16,15,07,28.10
2008,08,16,15,08,28.00
2008,08,16,15,09,27.90
2008,08,16,15,10,27.80
2008,08,16,15,11,27.80
2008,08,16,15,12,27.80
2008,08,16,15,13,27.80
2008,08,16,15,14,27.90
2008,08,16,15,15,27.80
2008,08,16,15,16,27.80
2008,08,16,15,17,27.70
2008,08,16,15,18,27.60
2008,08,16,15,19,27.40
2008,08,16,15,20,27.40
2008,08,16,15,21,27.40
2008,08,16,15,22,27.60
2008,08,16,15,23,27.70
2008,08,16,15,24,27.70
2008,08,16,15,25,27.70
2008,08,16,15,26,27.70
2008,08,16,15,27,27.60
2008,08,16,15,28,27.60
2008,08,16,15,29,27.50
2008,08,16,15,30,27.50
2008,08,16,15,31,27.60
2008,08,16,15,32,27.60
2008,08,16,15,33,27.70
2008,08,16,15,34,27.80
2008,08,16,15,35,27.80
2008,08,16,15,36,27.80
2008,08,16,15,37,27.90
2008,08,16,15,38,28.00
2008,08,16,15,39,28.10
2008,08,16,15,40,28.10
2008,08,16,15,41,28.20
2008,08,16,15,42,28.30
2008,08,16,15,43,28.40
2008,08,16,15,44,28.40
2008,08,16,15,45,28.50
2008,08,16,15,46,28.60
2008,08,16,15,47,28.60
2008,08,16,15,48,28.50
2008,08,16,15,49,28.40
2008,08,16,15,50,28.40
2008,08,16,15,51,28.40
2008,08,16,15,52,28.40
2008,08,16,15,53,28.50
2008,08,16,15,54,28.40
2008,08,16,15,55,28.30
2008,08,16,15,56,28.20
2008,08,16,15,57,28.20
2008,08,16,15,58,28.20
2008,08,16,15,59,28.20
2008,08,16,16,00,28.30
2008,08,16,16,01,28.30
2008,08,16,16,02,28.30
2008,08,16,16,03,28.30
2008,08,16,16,04,28.40
2008,08,16,16,05,28.40
2008,08,16,16,06,28.30
2008,08,16,16,07,28.20
2008,08,16,16,08,28.20
2008,08,16,16,09,28.10
2008,08,16,16,10,28.10
2008,08,16,16,11,28.00
2008,08,16,16,12,27.90
2008,08,16,16,13,27.80
2008,08,16,16,14,27.80
2008,08,16,16,15,27.70
2008,08,16,16,16,27.80
2008,08,16,16,17,27.80
2008,08,16,16,18,27.80
2008,08,16,16,19,27.90
2008,08,16,16,20,28.00
2008,08,16,16,21,28.10
2008,08,16,16,22,28.20
2008,08,16,16,23,28.30
2008,08,16,16,24,28.30
2008,08,16,16,25,28.30
2008,08,16,16,26,28.40
2008,08,16,16,27,28.50
2008,08,16,16,28,28.50
2008,08,16,16,29,28.60
2008,08,16,16,30,28.70
2008,08,16,16,31,28.80
2008,08,16,16,32,29.00
2008,08,16,16,33,29.20
2008,08,16,16,34,29.30
2008,08,16,16,35,29.50
2008,08,16,16,36,29.60
2008,08,16,16,37,29.70
2008,08,16,16,38,29.80
2008,08,16,16,39,29.80
2008,08,16,16,40,29.70
2008,08,16,16,41,29.70
2008,08,16,16,42,29.50
2008,08,16,16,43,29.40
2008,08,16,16,44,29.40
2008,08,16,16,45,29.30
2008,08,16,16,46,29.30
2008,08,16,16,47,29.40
2008,08,16,16,48,29.40
2008,08,16,16,49,29.40
2008,08,16,16,50,29.40
2008,08,16,16,51,29.40
2008,08,16,16,52,29.40
2008,08,16,16,53,29.50
2008,08,16,16,54,29.50
2008,08,16,16,55,29.60
2008,08,16,16,56,29.70
2008,08,16,16,57,29.70
2008,08,16,16,58,29.70
2008,08,16,16,59,29.80
2008,08,16,17,00,29.80
2008,08,16,17,01,29.80
2008,08,16,17,02,29.80
2008,08,16,17,03,29.80
2008,08,16,17,04,29.80
2008,08,16,17,05,29.80
2008,08,16,17,06,29.80
2008,08,16,17,07,29.80
2008,08,16,17,08,29.70
2008,08,16,17,09,29.60
2008,08,16,17,10,29.50
2008,08,16,17,11,29.40
2008,08,16,17,12,29.30
2008,08,16,17,13,29.10
2008,08,16,17,14,28.90
2008,08,16,17,15,28.80
2008,08,16,17,16,28.70
2008,08,16,17,17,28.60
2008,08,16,17,18,28.60
2008,08,16,17,19,28.60